This demonstration page uses our WeatherBlox Daily Observations layout. Learn more.

Left ArrowRight Arrow

39.29038, -76.61219

Hourly Observations for January 15, 2017

Temp ( °F °C ) Dew Point ( °F °C ) Humidity (%) Winds ( mph kmh ) Pressure ( in mb ) Visibility ( mi km ) Precip ( " mm )
12:54 am 00:54 undefined 36 2.2 31 -0.6 82 82 undefined N/A 30.32 1027 N/A 0.00 0.00
1:54 am 01:54 undefined 36 2.2 31 -0.6 82 82 undefined N/A 30.31 1027 N/A 0.00 0.00
2:54 am 02:54 undefined 36 2.2 31 -0.6 82 82 undefined N/A 30.31 1026 N/A 0.00 0.00
3:54 am 03:54 undefined 36 2.2 30 -1.1 79 79 undefined N/A 30.30 1026 N/A 0.00 0.00
4:54 am 04:54 undefined 36 2.2 30 -1.1 79 79 undefined N/A 30.32 1027 N/A 0.00 0.00
5:54 am 05:54 undefined 37 2.8 30 -1.1 76 76 undefined N/A 30.34 1028 N/A 0.00 0.00
6:54 am 06:54 undefined 36 2.2 28 -2.2 73 73 undefined N/A 30.36 1028 N/A 0.00 0.00
7:54 am 07:54 undefined 36 2.2 28 -2.2 73 73 undefined N/A 30.39 1029 N/A 0.00 0.00
8:54 am 08:54 undefined 37 2.8 27 -2.8 67 67 undefined N/A 30.43 1031 N/A 0.00 0.00
9:54 am 09:54 undefined 38 3.3 26 -3.3 62 62 undefined N/A 30.44 1031 N/A 0.00 0.00
10:54 am 10:54 undefined 39 3.9 26 -3.3 60 60 undefined N/A 30.45 1031 N/A 0.00 0.00
11:54 am 11:54 undefined 39 3.9 25 -3.9 57 57 undefined N/A 30.41 1030 N/A 0.00 0.00
12:54 pm 12:54 undefined 41 5 26 -3.3 55 55 undefined N/A 30.40 1029 N/A 0.00 0.00
1:54 pm 13:54 undefined 42 5.6 26 -3.3 53 53 undefined N/A 30.39 1029 N/A 0.00 0.00
2:54 pm 14:54 undefined 43 6.1 22 -5.6 43 43 undefined N/A 30.36 1028 N/A 0.00 0.00
3:54 pm 15:54 undefined 43 6.1 21 -6.1 42 42 undefined N/A 30.35 1028 N/A 0.00 0.00
4:54 pm 16:54 undefined 42 5.6 20 -6.7 41 41 undefined N/A 30.37 1028 N/A 0.00 0.00
5:54 pm 17:54 undefined 42 5.6 21 -6.1 43 43 undefined N/A 30.38 1029 N/A 0.00 0.00
6:54 pm 18:54 undefined 42 5.6 22 -5.6 45 45 undefined N/A 30.38 1029 N/A 0.00 0.00
7:54 pm 19:54 undefined 41 5 24 -4.4 51 51 undefined N/A 30.40 1029 N/A 0.00 0.00
8:54 pm 20:54 undefined 40 4.4 20 -6.7 45 45 undefined N/A 30.42 1030 N/A 0.00 0.00
9:54 pm 21:54 undefined 39 3.9 19 -7.2 45 45 undefined N/A 30.42 1030 N/A 0.00 0.00
10:54 pm 22:54 undefined 38 3.3 20 -6.7 48 48 undefined N/A 30.42 1030 N/A 0.00 0.00
11:54 pm 23:54 undefined 37 2.8 19 -7.2 48 48 undefined N/A 30.42 1030 N/A 0.00 0.00

Powered by AerisWeather